Location: Unspecified
(0.0000°N, 0.0000°E)
Time: 10:53:42
(UTC+00:00)

Courier 1B - Visible Passes

Search period start: 23 January 2021 00:00
Search period end: 02 February 2021 00:00
Orbit: 962 x 1209 km, 28.3° (Epoch: 22 January)

Date Brightness Start Highest point End Pass type
(mag) Time Alt. Az. Time Alt. Az. Time Alt. Az.
23 Jan 9.3 05:34:37 10° NNW 05:39:45 23° NNE 05:45:06 10° ENE visible
23 Jan 7.8 19:00:48 10° SW 19:08:18 70° SSE 19:13:27 20° ENE visible
23 Jan 9.1 20:56:07 10° W 21:00:22 28° WNW 21:00:22 28° WNW visible
24 Jan 9.5 04:42:14 11° N 04:45:47 16° NNE 04:49:50 10° ENE visible
24 Jan 8.2 20:01:34 10° WSW 20:08:38 48° NNW 20:10:08 42° N visible
25 Jan 9.7 03:51:58 11° NNE 03:51:58 11° NNE 03:53:45 10° NE visible
25 Jan 8.5 05:40:10 10° NW 05:46:21 41° NNE 05:52:51 10° E visible
25 Jan 8.0 19:07:14 10° WSW 19:14:45 67° NNW 19:19:54 20° NE visible
25 Jan 9.7 21:04:11 10° WNW 21:06:49 17° NW 21:06:49 17° NW visible
26 Jan 8.9 04:48:38 17° NNW 04:52:30 29° NNE 04:58:15 10° E visible
26 Jan 9.0 20:09:04 10° W 20:15:10 27° NNW 20:16:37 26° N visible
27 Jan 9.2 03:58:25 21° NNE 03:58:38 21° NNE 04:03:24 10° ENE visible
27 Jan 7.8 05:46:16 10° NW 05:52:50 75° NNE 05:59:48 10° ESE visible
27 Jan 8.7 19:14:17 10° W 19:21:12 38° NNW 19:26:24 16° NNE visible
28 Jan 8.0 04:55:07 23° NW 04:59:04 53° NNE 05:05:39 10° ESE visible
28 Jan 9.6 20:17:36 10° WNW 20:21:54 16° NNW 20:23:05 16° NNW visible
29 Jan 8.3 04:04:54 37° NNE 04:05:17 37° NNE 04:11:20 10° E visible
29 Jan 9.4 19:22:09 10° WNW 19:27:49 22° NNW 19:32:51 11° NNE visible
30 Jan 9.6 03:14:42 18° ENE 03:14:42 18° ENE 03:16:49 10° E visible
30 Jan 7.5 05:01:37 26° WNW 05:05:34 84° SSW 05:12:20 10° ESE visible
30 Jan 9.2 18:27:07 10° W 18:33:45 31° NNW 18:40:07 10° NNE visible
31 Jan 7.4 04:11:25 68° N 04:11:49 70° NNE 04:18:25 10° ESE visible
31 Jan 9.8 19:31:17 10° NW 19:34:41 13° NNW 19:38:00 10° N visible
01 Feb 9.1 03:21:12 28° E 03:21:12 28° E 03:24:21 10° ESE visible
01 Feb 8.1 05:08:06 21° W 05:12:06 44° SSW 05:18:27 10° SE visible
01 Feb 9.7 18:35:25 10° WNW 18:40:28 18° NNW 18:45:23 10° NNE visible
